| time (UTC) | temp C | wind direction | speed KPH | gust KPH | rain 1hr cm | rain 24hr cm | rain mn cm | humidity % | barometer mb |
| 20260906220122 | 23 | 354 | 9.7 | 0.0 | 0.00 | 0.00 | 0.00 | 33 | 1001.8 |
| 20260906214610 | 23 | 0 | 11.3 | 0.0 | 0.00 | 0.00 | 0.00 | 33 | 1001.8 |
| 20260906213012 | 24 | 275 | 12.9 | 0.0 | 0.00 | 0.00 | 0.00 | 33 | 1001.5 |
| 20260906211534 | 24 | 316 | 11.3 | 0.0 | 0.00 | 0.00 | 0.00 | 33 | 1001.5 |
| 20260906210031 | 25 | 277 | 11.3 | 0.0 | 0.00 | 0.00 | 0.00 | 30 | 1001.6 |
| 20260906204544 | 26 | 219 | 9.7 | 0.0 | 0.00 | 0.00 | 0.00 | 30 | 1000.6 |
| 20260906203057 | 25 | 295 | 9.7 | 0.0 | 0.00 | 0.00 | 0.00 | 30 | 1000.9 |
| 20260906201611 | 24 | 291 | 9.7 | 0.0 | 0.00 | 0.00 | 0.00 | 31 | 1001.4 |
| 20260906200056 | 25 | 263 | 12.9 | 0.0 | 0.00 | 0.00 | 0.00 | 31 | 1000.3 |
| 20260906194505 | 25 | 254 | 9.7 | 0.0 | 0.00 | 0.00 | 0.00 | 30 | 1001.5 |
| 20260906193025 | 25 | 251 | 9.7 | 0.0 | 0.00 | 0.00 | 0.00 | 30 | 1001.5 |
| 20260906191540 | 25 | 296 | 11.3 | 0.0 | 0.00 | 0.00 | 0.00 | 30 | 1001.0 |
| 20260906190025 | 25 | 247 | 8.0 | 0.0 | 0.00 | 0.00 | 0.00 | 31 | 1000.9 |
| 20260906184541 | 25 | 256 | 9.7 | 0.0 | 0.00 | 0.00 | 0.00 | 32 | 1001.1 |
| 20260906183106 | 24 | 292 | 9.7 | 0.0 | 0.00 | 0.00 | 0.00 | 32 | 1002.2 |
| 20260906181515 | 25 | 288 | 9.7 | 0.0 | 0.00 | 0.00 | 0.00 | 30 | 1001.0 |
| 20260906180107 | 25 | 200 | 6.4 | 0.0 | 0.00 | 0.00 | 0.00 | 29 | 1000.8 |
| 20260906174515 | 25 | 260 | 8.0 | 0.0 | 0.00 | 0.00 | 0.00 | 29 | 1001.9 |
| 20260906173032 | 24 | 260 | 8.0 | 0.0 | 0.00 | 0.00 | 0.00 | 29 | 1001.9 |
| 20260906171604 | 23 | 299 | 6.4 | 0.0 | 0.00 | 0.00 | 0.00 | 29 | 1002.5 |
| 20260906170049 | 26 | 136 | 4.8 | 0.0 | 0.00 | 0.00 | 0.00 | 27 | 1001.6 |
| 20260906164559 | 26 | 130 | 6.4 | 0.0 | 0.00 | 0.00 | 0.00 | 26 | 1001.5 |
| 20260906163106 | 26 | 35 | 4.8 | 0.0 | 0.00 | 0.00 | 0.00 | 28 | 1001.7 |
| 20260906161506 | 25 | 73 | 4.8 | 0.0 | 0.00 | 0.00 | 0.00 | 28 | 1002.8 |
| 20260906160058 | 24 | 3 | 4.8 | 0.0 | 0.00 | 0.00 | 0.00 | 29 | 1002.8 |
| 20260906154610 | 23 | 47 | 3.2 | 0.0 | 0.00 | 0.00 | 0.00 | 30 | 1003.2 |
| 20260906153007 | 22 | 66 | 3.2 | 0.0 | 0.00 | 0.00 | 0.00 | 31 | 1004.1 |
| 20260906151511 | 22 | 56 | 3.2 | 0.0 | 0.00 | 0.00 | 0.00 | 34 | 1004.1 |
| 20260906150110 | 21 | 86 | 1.6 | 0.0 | 0.00 | 0.00 | 0.00 | 34 | 1003.7 |
| 20260906144503 | 20 | 223 | 1.6 | 0.0 | 0.00 | 0.00 | 0.00 | 40 | 1004.8 |
| 20260906143023 | 19 | 301 | 1.6 | 0.0 | 0.00 | 0.00 | 0.00 | 41 | 1004.8 |
| 20260906141532 | 18 | 265 | 0.0 | 0.0 | 0.00 | 0.00 | 0.00 | 49 | 1005.0 |
| 20260906140110 | 17 | 264 | 0.0 | 0.0 | 0.00 | 0.00 | 0.00 | 49 | 1005.1 |
| 20260906134506 | 15 | 263 | 0.0 | 0.0 | 0.00 | 0.00 | 0.00 | 55 | 1007.1 |
| 20260906133026 | 12 | 263 | 0.0 | 0.0 | 0.00 | 0.00 | 0.00 | 56 | 1007.1 |
| 20260906131540 | 12 | 263 | 1.6 | 0.0 | 0.00 | 0.00 | 0.00 | 57 | 1007.0 |
| 20260906130034 | 12 | 263 | 0.0 | 0.0 | 0.00 | 0.00 | 0.00 | 58 | 1006.9 |
| 20260906124546 | 12 | 263 | 0.0 | 0.0 | 0.00 | 0.00 | 0.00 | 56 | 1006.4 |
| 20260906123104 | 12 | 263 | 0.0 | 0.0 | 0.00 | 0.00 | 0.00 | 56 | 1006.3 |
| 20260906121511 | 12 | 263 | 0.0 | 0.0 | 0.00 | 0.00 | 0.00 | 59 | 1005.5 |
| 20260906120108 | 12 | 263 | 0.0 | 0.0 | 0.00 | 0.00 | 0.00 | 57 | 1005.5 |
| 20260906114534 | 12 | 263 | 0.0 | 0.0 | 0.00 | 0.00 | 0.00 | 59 | 1005.2 |
| 20260906113040 | 11 | 263 | 0.0 | 0.0 | 0.00 | 0.00 | 0.00 | 59 | 1005.3 |
| 20260906111602 | 11 | 263 | 0.0 | 0.0 | 0.00 | 0.00 | 0.00 | 60 | 1005.5 |
| 20260906110043 | 11 | 263 | 0.0 | 0.0 | 0.00 | 0.00 | 0.00 | 59 | 1005.3 |
| 20260906104613 | 12 | 263 | 0.0 | 0.0 | 0.00 | 0.00 | 0.00 | 59 | 1005.2 |
| 20260906103004 | 12 | 263 | 0.0 | 0.0 | 0.00 | 0.00 | 0.00 | 58 | 1005.2 |
| 20260906101530 | 12 | 263 | 0.0 | 0.0 | 0.00 | 0.00 | 0.00 | 58 | 1005.2 |
| 20260906100004 | 12 | 263 | 0.0 | 0.0 | 0.00 | 0.00 | 0.00 | 59 | 1003.9 |
| 20260906094528 | 12 | 263 | 0.0 | 0.0 | 0.00 | 0.00 | 0.00 | 59 | 1003.9 |
| 20260906093038 | 12 | 263 | 0.0 | 0.0 | 0.00 | 0.00 | 0.00 | 57 | 1003.7 |
| 20260906091555 | 12 | 263 | 0.0 | 0.0 | 0.00 | 0.00 | 0.00 | 57 | 1003.8 |
| 20260906090043 | 13 | 263 | 0.0 | 0.0 | 0.00 | 0.00 | 0.00 | 55 | 1003.7 |
| 20260906084550 | 13 | 263 | 0.0 | 0.0 | 0.00 | 0.00 | 0.00 | 55 | 1003.0 |
| 20260906083103 | 13 | 263 | 0.0 | 0.0 | 0.00 | 0.00 | 0.00 | 53 | 1003.1 |
| 20260906081534 | 14 | 263 | 1.6 | 0.0 | 0.00 | 0.00 | 0.00 | 51 | 1003.0 |
| 20260906080112 | 14 | 263 | 0.0 | 0.0 | 0.00 | 0.00 | 0.00 | 53 | 1003.0 |
| 20260906074519 | 14 | 263 | 0.0 | 0.0 | 0.00 | 0.00 | 0.00 | 54 | 1003.0 |
| 20260906073035 | 14 | 263 | 0.0 | 0.0 | 0.00 | 0.00 | 0.00 | 53 | 1003.0 |
| 20260906071550 | 14 | 263 | 0.0 | 0.0 | 0.00 | 0.00 | 0.00 | 53 | 1002.9 |
| 20260906070032 | 15 | 263 | 0.0 | 0.0 | 0.00 | 0.00 | 0.00 | 53 | 1003.3 |
| 20260906064554 | 15 | 263 | 0.0 | 0.0 | 0.00 | 0.00 | 0.00 | 52 | 1003.5 |
| 20260906063104 | 15 | 263 | 0.0 | 0.0 | 0.00 | 0.00 | 0.00 | 52 | 1003.7 |
| 20260906061507 | 15 | 261 | 0.0 | 0.0 | 0.00 | 0.00 | 0.00 | 52 | 1002.1 |
| 20260906060104 | 15 | 261 | 0.0 | 0.0 | 0.00 | 0.00 | 0.00 | 51 | 1002.1 |
| 20260906054501 | 15 | 261 | 0.0 | 0.0 | 0.00 | 0.00 | 0.00 | 53 | 1002.2 |
| 20260906053018 | 15 | 261 | 0.0 | 0.0 | 0.00 | 0.00 | 0.00 | 52 | 1002.2 |
| 20260906051533 | 15 | 208 | 0.0 | 0.0 | 0.00 | 0.00 | 0.00 | 49 | 1002.1 |
| 20260906050011 | 15 | 208 | 0.0 | 0.0 | 0.00 | 0.00 | 0.00 | 49 | 1001.8 |
| 20260906044530 | 15 | 208 | 0.0 | 0.0 | 0.00 | 0.00 | 0.00 | 49 | 1001.8 |
| 20260906043057 | 15 | 208 | 0.0 | 0.0 | 0.00 | 0.00 | 0.00 | 51 | 1001.9 |
| 20260906041510 | 15 | 208 | 0.0 | 0.0 | 0.00 | 0.00 | 0.00 | 51 | 1002.8 |
| 20260906040004 | 15 | 208 | 0.0 | 0.0 | 0.00 | 0.00 | 0.00 | 50 | 1003.0 |
| 20260906034541 | 15 | 208 | 0.0 | 0.0 | 0.00 | 0.00 | 0.00 | 50 | 1003.0 |
| 20260906033058 | 15 | 208 | 0.0 | 0.0 | 0.00 | 0.00 | 0.00 | 49 | 1002.5 |
| 20260906031514 | 16 | 208 | 0.0 | 0.0 | 0.00 | 0.00 | 0.00 | 47 | 1002.4 |
| 20260906030007 | 16 | 208 | 1.6 | 0.0 | 0.00 | 0.00 | 0.00 | 47 | 1002.2 |
| 20260906024553 | 17 | 208 | 1.6 | 0.0 | 0.00 | 0.00 | 0.00 | 46 | 1002.2 |
| 20260906023010 | 17 | 208 | 1.6 | 0.0 | 0.00 | 0.00 | 0.00 | 44 | 1001.5 |
| 20260906021538 | 17 | 208 | 0.0 | 0.0 | 0.00 | 0.00 | 0.00 | 47 | 1001.5 |
| 20260906020048 | 17 | 208 | 0.0 | 0.0 | 0.00 | 0.00 | 0.00 | 46 | 1003.1 |
| 20260906014601 | 18 | 208 | 0.0 | 0.0 | 0.00 | 0.00 | 0.00 | 45 | 1003.1 |
| 20260906013011 | 18 | 137 | 0.0 | 0.0 | 0.00 | 0.00 | 0.00 | 47 | 1003.0 |
| 20260906011541 | 18 | 92 | 0.0 | 0.0 | 0.00 | 0.00 | 0.00 | 48 | 1003.0 |
| 20260906010037 | 18 | 107 | 1.6 | 0.0 | 0.00 | 0.00 | 0.00 | 46 | 1003.8 |
| 20260906004558 | 19 | 192 | 1.6 | 0.0 | 0.00 | 0.00 | 0.00 | 42 | 1003.8 |
| 20260906003020 | 20 | 165 | 1.6 | 0.0 | 0.00 | 0.00 | 0.00 | 40 | 1003.8 |
| 20260906001532 | 21 | 64 | 0.0 | 0.0 | 0.00 | 0.00 | 0.00 | 37 | 1003.8 |
| 20260906000018 | 21 | 69 | 1.6 | 0.0 | 0.00 | 0.00 | 0.00 | 36 | 1003.5 |
| 20260905234601 | 22 | 82 | 1.6 | 0.0 | 0.00 | 0.00 | 0.00 | 33 | 1003.2 |
| 20260905233018 | 22 | 58 | 3.2 | 0.0 | 0.00 | 0.00 | 0.00 | 33 | 1003.0 |
| 20260905231544 | 22 | 176 | 1.6 | 0.0 | 0.00 | 0.00 | 0.00 | 33 | 1003.1 |
| 20260905230037 | 22 | 185 | 6.4 | 0.0 | 0.00 | 0.00 | 0.00 | 28 | 1004.0 |
| 20260905224601 | 22 | 195 | 12.9 | 0.0 | 0.00 | 0.00 | 0.00 | 28 | 1003.8 |
| 20260905223015 | 24 | 179 | 6.4 | 0.0 | 0.00 | 0.00 | 0.00 | 27 | 1001.9 |
| 20260905221547 | 25 | 143 | 8.0 | 0.0 | 0.00 | 0.00 | 0.00 | 26 | 1001.9 |